Home   Weather   Denmark   Copenhagen   Past weeks
Flag for Denmark

Past Weather in Copenhagen, Denmark — Yesterday and Last 2 Weeks

Currently: 68 °F. Partly sunny. (Weather station: Koebenhavn-Kastrup Airport, Denmark). See more current weather

Past Weather in Copenhagen — Graph

°F

Copenhagen Temperature Yesterday

Maximum temperature yesterday: 82 °F (at 5:50 pm)
Minimum temperature yesterday: 64 °F (at 4:20 am)
Average temperature yesterday: 73 °F

High & Low Weather Summary for the Past Weeks

 TemperatureHumidityPressure
High84 °F (Aug 4, 5:20 pm)100% (Aug 1, 10:20 am)30.42 "Hg (Aug 1, 10:20 am)
Low48 °F (Aug 2, 3:20 am)32% (Aug 13, 12:50 pm)29.68 "Hg (Aug 16, 2:50 am)
Average67 °F70%30.10 "Hg
* Reported Aug 1 7:20 am — Aug 16 7:20 am, Copenhagen. Weather by CustomWeather, © 2022

Note: Actual official high and low records may vary slightly from our data, if they occured in-between our weather recording intervals... More about our weather records

Copenhagen Weather History for the Previous 24 Hours

Scroll right to see more
 ConditionsComfort  
Time TempWeatherWind HumidityBarometerVisibility
7:20 am
Tue, Aug 16
70 °FPartly sunny.8 mph88%29.71 "HgN/A
6:50 am70 °FPartly sunny.7 mph88%29.71 "HgN/A
6:20 am68 °FPartly sunny.10 mph94%29.68 "HgN/A
5:50 am68 °FPartly sunny.9 mph94%29.68 "HgN/A
5:20 am70 °FPassing clouds.7 mph88%29.68 "HgN/A
4:50 am70 °FPassing clouds.7 mph83%29.68 "HgN/A
4:20 am70 °FPassing clouds.6 mph83%29.68 "HgN/A
3:50 am68 °FPassing clouds.8 mph83%29.68 "HgN/A
2:50 am68 °FMild.5 mph83%29.68 "HgN/A
1:20 am70 °FPassing clouds.8 mph78%29.71 "HgN/A
12:50 am70 °FPassing clouds.6 mph83%29.71 "HgN/A
12:20 am70 °FPartly cloudy.7 mph83%29.71 "HgN/A
11:20 pm
Mon, Aug 15
70 °FMild.10 mph88%29.71 "HgN/A
10:50 pm72 °FMild.8 mph83%29.71 "HgN/A
10:20 pm72 °FMild.8 mph83%29.71 "HgN/A
9:20 pm73 °FMild.8 mph74%29.71 "HgN/A
8:20 pm75 °FMild.8 mph69%29.71 "HgN/A
7:50 pm77 °FWarm.9 mph65%29.71 "HgN/A
7:20 pm79 °FWarm.9 mph61%29.71 "HgN/A
6:50 pm81 °FWarm.9 mph58%29.71 "HgN/A
6:20 pm81 °FWarm.10 mph58%29.71 "HgN/A
5:50 pm82 °FWarm.9 mph55%29.71 "HgN/A
5:20 pm81 °FWarm.12 mph58%29.71 "HgN/A
4:50 pm81 °FWarm.12 mph58%29.71 "HgN/A
4:20 pm81 °FPassing clouds.12 mph58%29.71 "HgN/A
3:50 pm81 °FWarm.12 mph58%29.74 "HgN/A
2:50 pm81 °FWarm.10 mph58%29.74 "HgN/A
2:20 pm79 °FWarm.12 mph61%29.74 "HgN/A
1:50 pm81 °FWarm.12 mph58%29.74 "HgN/A
1:20 pm81 °FWarm.12 mph58%29.74 "HgN/A
12:50 pm79 °FWarm.10 mph61%29.74 "HgN/A
12:20 pm79 °FWarm.12 mph61%29.74 "HgN/A
11:20 am77 °FPartly sunny.6 mph69%29.77 "HgN/A
10:50 am75 °FPartly sunny.5 mph74%29.77 "HgN/A
10:20 am73 °FPassing clouds.6 mph74%29.77 "HgN/A
9:50 am73 °FPartly sunny.7 mph74%29.77 "HgN/A
9:20 am73 °FBroken clouds.9 mph74%29.77 "HgN/A
Weather by CustomWeather, © 2022

See weather overview